Weather History for Newport News, VA

Change the Weather History Date:

Tuesday, February 5, 2013

  Actual Average Record
Temperature  
Mean Temperature 50 °F -  
Max Temperature 57 °F 46 °F 73 °F (2008)
Min Temperature 43 °F 27 °F 15 °F (1970)
Degree Days  
Heating Degree Days 15    
Moisture  
Dew Point 30 °F    
Average Humidity 50    
Maximum Humidity 56    
Minimum Humidity 39    
Precipitation  
Precipitation 0.00 in - - ()
Sea Level Pressure  
Sea Level Pressure 29.92 in    
Wind  
Wind Speed 10 mph (SW)    
Max Wind Speed 17 mph    
Max Gust Speed 130 mph    
Visibility 10 miles    
Events      
Averages and records for this station are not official NWS values.
T = Trace of Precipitation, MM = Missing Value Source: NWS Daily Summary

Daily Weather History Graph

Daily Weather History Graph

Search for Another Location

Airport:

Trip Planner

Search our weather history database for the weather conditions in past years. The results will help you decide how hot, cold, wet, or windy it might be!

Date:

Astronomy

Feb. 05, 2013 Rise Set
Actual Time 7:05 AM EST 5:35 PM EST
Civil Twilight 6:37 AM EST 6:02 PM EST
Nautical Twilight 6:06 AM EST 6:33 PM EST
Astronomical Twilight 5:36 AM EST 7:04 PM EST
Moon 2:42 AM EST (2/5) 12:53 PM EST (2/5)
Length of Visible Light 11h 24m
Length of Day
10h 30m
Waning Crescent, 27% of the Moon is Illuminated
Feb 5
Waning Crescent
Feb 10
New
Feb 17
First Quarter
Feb 25
Full
Mar 4
Last Quarter

Hourly Weather History & Observations

Time (EST) Temp. Windchill Dew Point Humidity Pressure Visibility Wind Dir Wind Speed Gust Speed Precip Events Conditions
12:54 AM 43.0 °F 35.4 °F 25.0 °F 49% 29.96 in 10.0 mi SSW 16.1 mph - N/A   Overcast
2:54 AM 44.1 °F 38.1 °F 26.1 °F 49% 29.94 in 10.0 mi SW 11.5 mph - N/A   Overcast
3:54 AM 43.0 °F 38.8 °F 27.0 °F 53% 29.93 in 10.0 mi SW 6.9 mph - N/A   Overcast
4:54 AM 44.1 °F 39.5 °F 28.0 °F 53% 29.93 in 10.0 mi SW 8.1 mph - N/A   Overcast
5:54 AM 45.0 °F 37.6 °F 28.0 °F 52% 29.92 in 10.0 mi SSW 17.3 mph 130.0 mph N/A   Overcast
6:54 AM 44.1 °F 39.0 °F 28.0 °F 53% 29.93 in 10.0 mi SSW 9.2 mph - N/A   Scattered Clouds
7:54 AM 44.1 °F 39.0 °F 28.9 °F 55% 29.95 in 10.0 mi SW 9.2 mph - N/A   Partly Cloudy
8:54 AM 45.0 °F 40.1 °F 30.0 °F 56% 29.96 in 10.0 mi SW 9.2 mph - N/A   Mostly Cloudy
9:54 AM 46.0 °F 41.9 °F 30.0 °F 54% 29.95 in 10.0 mi SW 8.1 mph - N/A   Overcast
10:54 AM 48.9 °F - 30.9 °F 50% 29.96 in 10.0 mi SW 11.5 mph - 0.00 in   Overcast
11:54 AM 51.1 °F - 30.9 °F 46% 29.93 in 10.0 mi WSW 6.9 mph - N/A   Overcast
12:54 PM 52.0 °F - 30.9 °F 45% 29.90 in 10.0 mi WSW 8.1 mph - N/A   Overcast
1:54 PM 54.0 °F - 30.0 °F 40% 29.88 in 10.0 mi WSW 9.2 mph - N/A   Mostly Cloudy
2:54 PM 55.9 °F - 30.9 °F 39% 29.86 in 10.0 mi West 10.4 mph - N/A   Overcast
3:54 PM 57.0 °F - 32.0 °F 39% 29.86 in 10.0 mi West 6.9 mph - N/A   Mostly Cloudy
4:54 PM 55.0 °F - 33.1 °F 43% 29.86 in 10.0 mi SW 6.9 mph - N/A   Mostly Cloudy
5:54 PM 50.0 °F - 33.1 °F 52% 29.87 in 10.0 mi SW 6.9 mph - N/A   Partly Cloudy
6:54 PM 50.0 °F - 32.0 °F 50% 29.89 in 10.0 mi SSW 4.6 mph - N/A   Clear
7:54 PM 48.0 °F - 33.1 °F 56% 29.90 in 10.0 mi SW 6.9 mph - N/A   Clear
8:54 PM 48.0 °F - 33.1 °F 56% 29.91 in 10.0 mi SW 5.8 mph - N/A   Clear
9:54 PM 48.2 °F - 32.0 °F 54% 29.93 in 10.0 mi WSW 6.9 mph - N/A   Clear
10:54 PM 46.9 °F - 32.0 °F 56% 29.93 in 10.0 mi WSW 4.6 mph - N/A   Clear
11:54 PM 46.9 °F - 32.0 °F 56% 29.94 in 10.0 mi WSW 3.5 mph - N/A   Clear